{"data":{"norad_id":64120,"intl_designator":"2025-110AA","name":"STARLINK-34151","alt_names":[],"object_type":"PAYLOAD","status":"ACTIVE","operator":null,"country":"US","launch_date":"2025-05-23","launch_site_code":"AFWTR","launch_vehicle":null,"mission":null,"orbit_class":"UNKNOWN","rcs_meters":null,"size_class":null,"mass_kg":null,"dimensions":null,"purposes":["comms"],"wikipedia_slug":null,"has_3d_model":false,"image_url":null,"decayed_at":null,"tle_current":{"epoch":"2026-05-24T22:47:05.574912Z","epoch_age_seconds":89984,"freshness":"FRESH","line1":"1 64120U 25110AA  26144.94937008  .00012612  00000+0  43710-3 0  9998","line2":"2 64120  53.1620  32.8598 0001282  88.3918 271.7230 15.30209277 57557","mean_motion":15.30209277,"eccentricity":0.0001282,"inclination_deg":53.162,"raan_deg":32.8598,"arg_perigee_deg":88.3918,"mean_anomaly_deg":271.723,"bstar":0.0004371,"rev_number":5755,"period_min":94.104775186251,"perigee_km":474.30877392521,"apogee_km":476.06596629371,"semimajor_km":6853.3243701095,"source":"CELESTRAK","updated_at":"2026-05-25T13:38:20.269374Z"}}}